Theta_e
325 320 316 327 319 314 310 305 296 295 289 289 287 286 289 292 292 294 295 296 294 299 300 303 303 303 302 301 305 311 311 301 301 293 292 308 327 336 338 339 340 339 339 340 341 342 344 346 349 349 349 349 348 348 348 347 347 346 346 346 346 345 344 343 343 342 341 341 341 341 340 340 340 339 338 343 346 346 345 345 342 340 339 337 339 340 339 338 339 340 340 341 342 342 341 340 340
320 318 315 322 318 310 307 301 292 289 285 285 288 286 292 292 293 292 294 294 296 300 299 307 310 311 311 311 313 309 305 317 315 313 324 329 334 336 339 340 340 338 339 340 341 341 342 345 348 349 349 349 348 348 347 347 347 346 346 346 345 345 345 343 343 342 341 341 341 340 340 339 339 339 339 339 341 345 345 345 344 342 340 339 341 340 339 338 339 339 340 341 341 341 341 341 340
320 316 314 313 313 308 305 300 294 283 283 282 283 286 293 293 292 294 295 297 299 300 302 306 304 304 305 307 305 301 299 320 324 324 324 331 331 333 339 340 340 340 340 341 341 341 342 343 346 349 349 349 348 347 347 347 346 346 346 345 345 345 344 344 343 342 342 341 340 340 339 339 339 338 338 343 346 344 341 340 340 340 340 337 339 341 341 340 340 339 340 340 340 340 339 340 341
316 318 314 311 308 304 298 292 287 285 286 281 285 290 292 293 294 296 298 299 299 297 300 301 299 301 306 305 308 312 310 313 320 325 325 327 328 336 339 340 340 341 341 341 341 340 341 344 346 349 349 348 348 347 346 346 346 346 345 345 345 344 344 342 342 342 341 341 340 340 340 340 339 340 345 345 346 345 344 343 343 341 341 340 339 339 339 339 340 339 339 339 340 339 338 339 339
316 319 313 308 303 302 297 293 286 283 284 283 285 286 293 294 296 296 298 298 297 297 299 299 300 305 309 308 307 305 308 317 321 323 323 325 333 337 339 339 340 340 340 341 341 340 341 344 346 348 349 348 348 348 346 346 346 345 345 345 344 344 344 343 342 342 341 340 340 339 339 339 338 341 345 345 345 345 343 343 342 341 341 338 337 338 338 338 339 338 339 339 339 339 337 337 337
314 315 316 310 305 305 294 289 288 285 285 286 286 292 294 296 296 295 297 297 298 296 298 297 301 301 306 308 310 312 317 312 321 324 323 327 332 337 339 339 340 340 340 340 340 340 341 342 345 348 349 349 348 347 346 346 345 345 344 344 344 344 343 343 342 341 340 340 340 339 339 339 338 342 344 344 344 344 343 342 342 342 340 337 337 336 337 339 338 338 339 339 339 339 338 336 337
314 307 306 304 304 299 292 285 286 284 291 289 292 293 296 295 296 296 297 298 299 298 298 303 306 304 305 307 310 317 320 321 323 323 324 328 331 338 339 339 340 339 339 340 340 340 341 343 347 349 348 348 348 347 347 346 345 345 345 344 344 344 343 342 342 341 341 340 340 340 339 339 338 337 342 342 342 342 342 341 341 341 340 338 338 338 337 337 337 338 339 339 340 338 337 336 336
313 307 304 297 295 293 287 285 287 284 292 293 295 297 295 296 294 296 295 294 297 297 299 302 300 296 298 308 305 315 322 325 324 326 327 328 334 337 339 339 338 338 339 339 340 339 344 342 346 348 348 348 348 347 347 347 346 345 345 344 344 344 343 342 341 341 340 340 339 339 339 338 337 336 339 341 341 341 340 340 340 340 340 339 335 335 336 336 336 338 339 340 339 338 336 337 337
310 306 304 297 294 288 284 286 289 287 293 294 295 298 302 297 295 295 295 295 296 297 298 298 297 297 298 306 306 311 319 325 326 327 328 329 334 337 339 339 338 338 339 339 339 340 340 340 345 347 347 348 348 347 347 347 346 345 344 344 344 343 342 341 341 340 340 339 339 338 338 337 336 336 336 339 340 339 339 339 338 338 336 335 335 335 335 335 335 338 339 339 338 338 338 337 337
307 305 299 296 292 287 283 286 285 290 292 294 295 297 297 295 295 295 294 295 297 296 298 297 297 296 301 304 307 311 316 325 325 326 326 329 332 335 338 339 339 338 338 339 339 339 339 344 342 345 346 347 347 347 347 346 346 345 345 344 344 344 343 342 340 340 339 339 338 337 337 337 336 336 335 335 336 336 336 337 336 335 335 334 335 335 335 335 334 335 337 336 336 336 337 337 336
300 300 301 296 287 285 284 285 287 291 292 293 295 297 297 295 295 294 295 295 297 297 298 299 302 301 300 301 303 307 318 324 324 324 325 329 331 333 336 339 339 339 338 339 338 339 340 341 342 341 343 344 345 347 346 346 346 345 344 344 344 343 342 341 340 339 339 338 338 338 337 337 336 335 335 334 335 335 334 334 335 334 334 335 334 334 334 332 334 336 336 336 335 335 335 335 335
299 296 299 287 287 286 284 287 287 289 292 292 294 295 294 295 293 294 295 296 296 296 298 298 300 300 298 298 302 314 321 322 321 322 325 328 329 332 336 338 338 338 338 337 337 339 339 339 340 342 339 341 342 344 344 345 345 344 344 344 343 342 342 341 340 338 338 337 337 337 337 336 335 334 333 333 334 333 334 333 333 332 334 334 334 333 333 333 334 335 334 334 333 334 334 334 333
299 296 290 289 289 286 285 286 286 289 290 291 293 295 293 295 295 295 295 295 294 295 297 297 302 300 297 298 299 315 319 322 322 322 326 331 331 332 337 338 338 337 337 336 337 338 337 337 338 339 337 335 337 339 340 342 342 344 344 344 343 343 342 341 340 338 336 336 336 336 335 335 335 334 333 333 332 332 331 330 330 332 332 333 333 332 333 333 333 334 333 333 333 333 333 332 332
301 299 293 294 286 286 286 285 286 287 286 290 290 295 294 295 295 294 295 294 294 295 297 298 300 302 301 304 307 312 317 321 322 323 327 330 331 334 336 336 336 335 335 335 336 337 336 336 336 336 336 337 338 336 335 338 340 342 342 342 341 341 341 340 340 339 337 336 335 335 335 334 335 334 333 332 332 332 331 330 330 330 331 331 331 331 332 332 333 333 332 332 332 332 331 332 331
305 302 292 289 287 287 287 286 289 284 287 288 295 295 295 298 293 292 296 293 294 297 300 300 303 300 295 303 300 313 319 323 323 323 328 330 331 334 334 335 334 333 334 334 335 336 336 336 336 336 337 337 338 338 339 338 336 338 339 339 339 340 339 338 338 337 335 334 333 332 331 330 330 331 331 332 332 331 330 329 330 330 330 330 330 331 331 332 332 332 332 331 330 330 329 329 328
303 296 291 293 287 286 288 287 287 286 290 290 295 292 294 296 295 296 296 295 297 300 297 297 299 298 298 302 298 315 322 323 322 325 328 328 327 330 332 333 334 334 334 334 334 334 335 335 335 335 336 336 337 338 338 338 334 334 337 338 337 338 336 335 334 333 329 327 326 326 325 325 324 324 325 326 327 329 328 326 329 329 328 329 329 329 328 329 331 331 330 329 328 328 327 326 325
300 298 296 285 289 288 289 288 288 287 288 290 293 294 293 294 296 298 297 297 298 297 299 301 300 309 302 303 306 320 323 323 321 324 327 327 329 329 330 332 334 335 336 336 335 336 336 335 334 335 336 336 336 338 338 338 336 332 333 332 332 333 333 332 331 326 322 320 320 320 321 322 321 322 322 322 321 323 322 324 327 328 328 328 328 326 326 326 326 327 326 326 325 324 321 321 320
299 294 286 288 286 287 290 289 290 290 293 292 292 292 293 292 295 298 298 297 294 296 297 298 312 314 314 315 317 324 323 322 322 323 324 326 327 327 328 329 332 332 334 335 337 337 336 336 335 335 335 335 336 338 339 338 336 335 335 334 333 331 328 326 325 324 324 321 320 321 321 321 321 321 321 323 321 322 322 322 323 326 328 328 325 324 323 323 323 324 323 322 320 317 314 309 311
293 288 285 289 287 291 293 292 290 293 292 295 294 290 295 294 294 297 294 294 295 295 295 300 307 312 316 318 320 321 321 322 322 322 322 323 325 325 327 326 329 331 331 333 335 336 336 337 336 336 335 336 336 338 339 337 337 337 336 336 334 329 327 326 325 323 322 321 321 321 320 321 320 320 320 321 321 320 321 321 323 324 322 322 322 321 321 320 320 320 319 317 315 311 305 304 306
293 292 289 287 290 292 292 293 294 293 294 293 292 292 293 294 295 297 294 292 293 293 294 295 301 309 314 316 318 319 321 321 321 320 321 323 324 325 325 325 327 329 331 333 333 336 336 336 335 336 336 337 337 338 338 337 338 338 337 336 334 331 328 327 325 323 322 322 322 322 321 320 320 319 320 321 320 319 320 319 315 314 314 313 312 311 314 316 316 314 313 310 307 303 302 303 304
294 290 286 292 292 293 296 293 293 292 295 294 293 292 293 293 294 295 291 293 292 292 294 298 297 305 314 317 317 318 320 320 320 319 320 321 322 322 324 326 328 328 329 329 330 333 335 336 333 334 336 337 337 337 337 337 338 338 337 336 334 331 329 328 326 324 323 322 322 322 321 320 319 319 318 318 317 316 316 314 310 307 305 304 306 301 301 302 301 300 300 301 299 301 301 301 302
290 292 291 291 291 294 295 293 292 293 293 294 291 293 293 295 295 292 293 291 289 294 296 297 299 311 316 315 316 317 319 321 321 319 319 322 323 322 320 319 318 320 321 327 329 330 333 336 334 332 333 336 337 337 337 336 338 337 337 336 335 332 330 328 326 325 324 324 323 322 321 320 319 318 317 316 315 314 313 310 308 307 304 303 303 301 301 300 299 299 298 298 297 298 298 299 300
292 291 292 292 292 293 294 294 292 291 292 292 292 294 295 295 295 292 293 292 292 292 295 298 298 313 317 317 317 316 317 319 320 320 319 320 322 322 321 321 321 321 323 325 327 327 331 334 333 331 331 333 335 336 337 337 338 338 337 336 335 333 331 328 326 325 325 326 325 322 320 319 319 318 317 315 314 313 311 309 309 307 304 302 302 301 300 299 298 298 297 297 297 297 297 297 298
289 291 291 294 293 294 293 295 291 291 293 292 293 294 295 292 295 293 293 292 292 295 296 296 296 312 316 315 315 316 317 318 319 320 320 319 320 321 322 321 322 321 321 323 323 326 326 330 332 328 329 330 333 334 335 336 338 338 337 334 335 333 332 329 327 325 326 326 326 322 321 320 319 318 316 315 313 311 310 309 310 307 304 302 301 300 298 297 297 297 296 296 297 296 296 296 297
292 293 292 294 292 294 292 290 291 292 292 293 293 295 294 292 293 293 294 294 294 295 299 298 302 311 313 314 314 314 315 316 317 318 318 318 318 319 319 321 321 319 321 322 322 324 325 327 329 327 328 329 331 332 332 335 337 337 336 335 335 330 334 331 329 327 326 327 328 323 322 321 320 319 317 315 313 311 310 311 311 307 304 301 300 298 297 296 296 297 297 296 296 295 296 295 295
292 293 292 292 293 294 292 293 292 292 294 292 294 292 293 292 293 294 295 294 295 297 300 299 303 308 310 312 313 313 313 314 315 316 317 318 317 317 318 320 321 319 321 322 321 323 325 326 326 326 327 328 329 329 331 333 335 336 336 335 336 330 335 334 331 328 327 328 328 325 323 321 320 319 317 315 314 312 312 313 309 306 303 300 298 297 297 297 297 297 297 295 295 294 294 294 294
291 291 291 292 293 294 293 294 293 293 293 293 293 292 294 293 294 289 291 294 294 298 299 299 301 304 306 309 311 311 312 313 314 316 315 315 315 317 318 319 319 320 320 321 321 322 323 324 325 325 325 325 326 327 329 332 333 335 335 336 335 333 335 335 332 330 328 328 330 326 324 321 320 319 317 315 314 313 314 312 308 304 301 299 298 297 296 296 297 297 297 296 295 293 292 292 293
293 292 292 292 291 293 293 292 294 293 295 290 291 293 293 294 293 291 294 294 296 298 297 299 298 300 302 304 307 308 309 312 313 311 314 314 316 316 317 319 319 319 319 320 321 322 321 323 324 324 325 324 324 325 326 330 331 333 333 334 334 334 334 334 333 332 329 329 331 327 325 322 320 319 317 316 314 314 315 313 308 303 300 299 297 296 296 296 296 296 295 295 294 293 292 293 293
293 293 290 291 289 293 293 293 294 294 294 295 294 292 290 292 291 294 293 294 295 296 297 297 298 298 299 301 303 304 305 307 309 310 313 316 318 319 318 319 321 319 320 321 320 320 321 321 323 323 323 322 322 323 323 327 329 329 329 331 330 330 332 332 332 332 332 331 331 329 326 322 320 319 317 316 315 316 316 311 307 302 300 298 297 297 296 296 296 295 294 294 294 293 292 292 292
293 291 290 288 287 287 294 293 293 295 295 293 293 285 281 287 295 294 294 294 293 294 293 295 296 295 297 298 302 303 304 302 305 309 312 314 315 317 318 318 319 320 319 318 319 319 321 321 322 322 321 320 320 320 320 322 326 326 326 328 327 327 328 330 331 331 331 332 331 330 327 324 322 320 318 318 318 317 315 310 304 301 299 298 298 297 296 295 294 294 293 293 294 292 291 291 290
291 291 287 283 284 284 289 293 292 293 295 293 292 284 280 285 289 291 291 294 295 295 294 294 294 294 294 295 297 301 303 304 305 308 310 312 314 315 317 316 317 318 317 317 318 319 319 319 320 320 317 317 316 316 315 317 319 323 323 322 324 325 326 328 328 328 330 332 332 330 328 324 323 321 320 320 319 317 313 308 303 301 299 298 297 297 295 294 294 293 293 292 292 291 290 290 289
286 287 285 285 283 283 290 292 291 291 294 291 290 283 285 288 290 289 294 294 294 294 293 293 294 295 296 295 295 296 299 302 304 305 308 310 312 314 315 316 316 317 318 318 318 317 318 317 316 318 314 315 314 314 312 312 315 318 320 318 319 320 322 325 326 327 328 331 331 330 329 326 324 323 321 321 319 317 312 306 303 300 298 298 297 296 295 294 293 294 293 292 290 290 290 289 288
284 283 281 284 283 284 289 295 291 292 293 292 291 284 285 290 291 294 294 295 293 293 293 293 294 295 296 296 296 296 296 296 299 303 306 309 311 313 315 316 316 317 317 317 316 315 316 314 314 314 313 314 312 310 308 308 311 313 315 315 315 315 318 319 320 321 325 326 328 330 330 327 325 324 322 322 319 316 311 306 302 300 299 298 296 295 295 296 294 293 292 292 291 289 289 287 287
287 283 284 282 284 286 286 289 291 291 293 291 290 289 286 289 288 288 289 294 293 293 294 294 294 295 295 296 296 296 296 297 298 302 305 308 311 312 314 314 316 315 315 316 316 315 315 313 313 313 312 312 311 310 308 308 309 309 309 309 309 311 310 309 312 315 320 322 324 324 328 327 325 324 322 321 319 315 311 306 302 300 299 297 296 295 295 295 294 293 291 291 290 289 288 287 287
283 284 285 286 285 285 286 287 291 293 290 291 288 289 290 291 292 292 292 291 293 293 295 295 295 295 295 295 295 296 297 297 299 301 304 307 309 311 313 313 314 313 314 314 313 314 312 311 310 309 310 309 309 307 305 306 306 305 304 306 307 307 307 305 307 311 313 317 319 321 321 323 324 324 322 320 318 314 310 306 302 300 299 297 296 295 294 294 293 293 291 290 291 290 289 288 287
286 287 285 283 285 286 286 287 290 292 290 290 287 289 290 291 291 292 292 291 291 294 294 294 294 294 294 294 295 295 297 298 300 300 302 307 309 311 311 311 313 313 311 312 311 311 311 309 308 308 308 309 308 306 305 305 305 306 307 304 307 307 307 307 307 307 306 314 316 316 318 321 320 321 322 320 316 312 308 305 303 301 299 297 295 294 293 293 292 292 291 290 289 289 289 288 288
287 286 283 285 284 287 289 289 291 290 288 288 288 287 287 289 290 292 292 290 289 291 292 294 295 295 295 294 294 295 295 298 299 300 300 304 308 309 310 310 310 310 310 310 310 309 310 310 308 308 307 308 309 306 305 305 304 303 302 306 308 306 307 306 306 305 305 308 312 314 316 317 319 320 319 318 315 311 308 305 302 301 299 298 296 295 295 294 293 292 291 290 288 287 287 287 287
289 285 285 285 283 286 289 290 291 290 288 284 284 285 287 289 290 291 291 288 290 291 291 292 294 295 295 295 295 294 295 296 299 298 299 301 305 306 307 309 308 309 309 309 309 309 308 307 309 308 305 306 307 307 305 304 301 301 301 303 299 302 304 306 305 304 306 304 306 312 314 315 317 317 316 317 314 311 308 305 302 301 299 298 297 296 295 294 293 292 291 289 289 288 286 287 287
285 285 283 284 286 286 290 289 290 289 288 285 283 286 288 289 290 291 290 292 293 292 292 294 294 294 294 294 295 295 293 294 295 297 298 302 304 306 307 307 308 311 309 309 309 307 307 307 307 306 305 306 305 305 305 304 301 299 299 298 301 299 299 301 300 300 303 305 305 306 311 313 314 314 315 314 313 311 308 306 303 302 300 298 297 295 294 293 292 291 290 289 287 288 287 288 287
284 283 284 283 284 286 285 286 288 290 288 287 285 286 290 291 289 291 294 293 293 292 292 293 293 294 294 295 295 295 294 295 294 297 299 300 303 305 305 306 307 307 306 306 306 307 307 306 306 305 305 304 304 303 304 301 301 299 299 300 298 297 298 299 298 299 302 304 305 304 306 311 313 313 313 313 313 311 309 306 304 302 300 299 297 295 293 293 292 291 291 290 288 286 286 286 288
284 282 282 284 286 286 283 287 288 284 289 287 285 284 285 282 283 285 285 286 290 292 290 292 293 293 294 293 292 293 295 296 295 295 297 299 301 304 306 306 305 306 306 307 306 307 308 306 305 305 304 304 303 302 303 301 300 298 297 297 297 298 298 298 298 299 301 303 304 303 305 308 311 312 313 312 311 310 309 307 304 302 301 299 298 295 294 293 293 292 291 290 289 287 285 286 286
285 285 285 286 286 288 288 284 285 277 280 282 286 279 275 278 283 284 287 285 288 286 286 289 291 290 290 292 294 293 293 294 295 297 299 300 303 303 301 303 304 305 305 306 307 307 306 305 305 304 303 303 303 302 302 301 302 300 298 299 299 300 300 298 300 301 299 300 302 303 304 306 309 310 311 312 311 310 309 307 305 303 300 299 298 297 295 294 293 292 291 290 289 289 287 285 284
282 286 288 287 287 286 285 286 282 279 278 286 285 280 276 280 284 287 288 287 289 290 289 292 293 289 289 292 292 293 294 294 294 295 297 298 299 301 301 302 304 304 305 304 305 305 305 305 305 304 303 302 303 302 301 301 301 301 302 302 303 303 303 300 301 301 300 300 301 302 303 303 306 309 309 310 310 309 309 307 305 303 301 299 298 297 295 294 294 294 292 292 290 289 287 285 284
283 284 287 287 287 286 284 281 282 278 279 281 281 278 277 279 284 285 286 286 288 288 290 291 292 288 289 291 293 292 293 294 297 297 297 298 300 302 303 303 303 305 303 303 304 304 304 304 304 303 302 302 302 302 301 302 302 301 301 302 303 304 303 301 300 300 299 299 299 300 301 302 303 306 309 310 310 309 308 306 305 303 301 300 298 297 296 295 295 294 293 292 290 289 287 286 284
283 287 287 285 286 285 283 283 282 282 282 280 277 283 282 277 282 285 285 285 284 287 290 291 291 288 288 290 291 292 293 295 296 297 298 298 299 300 301 301 302 301 302 303 304 304 304 303 303 302 302 301 300 301 301 301 302 301 302 303 303 304 305 302 300 299 298 298 298 299 300 301 301 303 307 308 309 309 306 306 305 303 302 300 298 299 298 296 295 293 292 290 289 289 288 287 286
290 287 288 287 286 284 282 280 283 279 278 274 279 282 276 278 279 281 281 285 286 288 289 289 289 289 288 291 293 293 293 293 293 295 296 297 298 299 299 299 299 302 302 302 302 302 302 302 302 301 301 301 300 300 301 301 301 301 301 302 303 304 304 302 300 298 298 297 297 297 298 300 300 301 303 306 307 308 307 306 305 303 302 301 299 300 298 296 295 293 292 291 290 288 288 286 286
290 288 289 285 282 281 278 278 276 278 273 274 278 280 280 277 280 282 284 285 285 286 287 286 288 292 293 293 292 294 294 293 294 294 294 295 295 296 297 300 301 298 299 301 301 302 301 302 301 301 301 301 299 299 300 300 301 301 302 302 303 303 303 301 299 297 296 296 297 296 297 299 300 301 300 303 307 307 307 306 305 304 303 301 300 300 298 296 295 293 292 291 290 288 287 286 287
289 285 280 282 280 279 277 273 276 274 268 274 278 281 280 275 277 282 285 286 286 288 289 289 287 290 292 293 293 293 293 293 292 294 295 294 295 295 296 298 299 299 298 300 300 300 301 301 301 301 300 299 299 299 299 300 301 301 302 303 303 304 303 301 300 298 296 296 297 296 297 298 298 300 299 300 304 307 306 306 305 304 303 302 301 301 299 297 295 293 292 291 290 289 288 286 287
285 282 282 278 273 271 274 268 275 271 272 280 279 280 281 281 283 287 287 288 289 287 288 289 290 290 292 293 293 292 290 291 293 292 292 293 294 296 297 298 297 298 300 300 300 300 300 300 300 300 299 298 298 298 298 299 299 300 301 302 303 304 304 302 301 300 297 297 297 296 296 296 297 298 298 298 301 305 306 305 305 304 303 303 302 301 299 297 295 294 292 291 290 289 288 287 287
284 284 278 274 271 270 266 261 265 268 275 277 280 281 280 280 283 290 292 293 289 287 287 287 289 292 294 293 292 292 290 291 291 291 291 292 295 296 297 298 299 299 299 300 300 300 300 299 299 300 300 298 297 297 298 298 299 299 300 301 303 303 304 303 302 301 299 298 298 297 296 297 297 298 299 298 300 303 305 306 305 305 304 303 302 301 300 298 296 294 293 292 291 290 289 288 287
285 282 283 279 270 267 267 266 272 271 272 276 278 277 275 278 284 287 289 291 288 288 288 287 288 290 290 290 290 290 290 290 289 290 292 294 295 295 297 298 298 299 299 299 299 299 298 299 299 299 299 297 297 297 297 298 298 299 299 300 301 302 303 302 302 301 300 298 298 297 297 297 298 299 300 300 300 299 302 305 305 305 304 303 302 301 300 298 296 295 293 292 292 291 289 288 287
282 281 281 278 277 274 272 267 269 268 272 275 276 278 278 282 284 286 288 288 289 288 287 286 287 287 292 293 292 293 292 292 291 291 292 293 293 293 295 297 298 299 298 298 299 299 299 299 299 299 299 297 297 296 297 297 298 298 298 299 300 302 302 302 301 300 300 299 299 298 297 297 298 299 300 300 300 299 300 302 302 303 304 303 302 301 300 298 296 295 294 293 291 291 290 288 287
283 284 279 280 281 281 274 272 277 273 271 274 272 278 281 282 284 289 287 287 290 288 287 287 288 287 287 292 292 291 292 292 292 293 294 294 291 293 295 296 298 298 298 299 300 299 299 299 298 298 298 296 296 296 297 297 297 297 298 299 300 301 302 301 301 300 299 299 299 298 297 297 297 298 298 299 299 299 299 300 301 302 302 301 300 300 299 298 297 295 294 292 291 290 289 289 287
285 280 282 283 284 281 278 273 267 265 270 273 274 277 278 278 279 282 287 285 285 285 289 289 288 286 288 291 290 292 293 294 293 293 293 293 292 294 295 296 297 299 299 299 299 299 299 299 299 298 298 297 296 296 296 296 296 297 297 298 299 301 302 302 301 300 299 298 298 298 298 296 296 297 297 297 298 297 297 296 298 298 299 299 300 299 298 297 296 294 293 292 292 290 289 288 287
283 281 284 285 279 278 279 273 271 268 266 267 273 274 275 279 282 282 285 286 287 287 288 288 290 291 290 290 288 289 290 290 293 293 294 294 294 295 295 296 297 297 298 298 299 299 299 298 298 299 299 298 297 296 296 296 296 297 297 298 298 300 302 302 301 301 299 298 297 298 297 297 296 296 295 295 295 295 294 293 294 293 293 293 294 295 295 295 294 293 292 291 290 289 289 288 286
287 288 286 284 281 274 275 278 271 274 267 265 271 270 280 281 281 283 286 285 284 284 284 286 290 291 291 289 289 289 289 291 292 292 294 295 295 295 296 296 296 297 297 298 298 298 299 299 298 298 297 296 295 295 295 295 295 296 296 296 297 299 300 301 301 300 299 298 298 297 297 296 295 294 294 295 294 294 294 293 293 294 293 293 293 293 293 293 293 293 291 290 288 288 288 287 285
286 285 283 286 279 281 279 279 274 273 265 264 266 272 277 279 282 285 288 288 287 288 289 288 288 289 288 287 289 290 289 290 291 293 294 295 295 295 295 295 295 293 294 296 298 298 298 298 298 297 297 297 296 296 295 295 294 294 294 295 295 296 297 299 300 300 299 298 298 297 297 296 293 292 292 292 293 293 294 294 293 292 292 292 291 291 291 292 292 292 290 290 287 287 288 286 284
289 288 285 287 281 278 275 275 277 271 274 269 265 274 281 283 285 286 285 286 285 286 287 288 288 287 288 289 288 288 289 290 291 293 293 295 294 294 293 291 291 292 295 296 297 297 297 298 299 298 297 298 297 296 295 294 294 294 294 295 294 295 296 297 298 299 298 298 297 296 296 293 291 290 290 291 292 292 293 293 293 292 292 291 291 291 290 290 291 290 289 288 287 286 287 285 283
Wind_Speed
4 3 1 2 2 3 2 5 2 2 3 0 0 1 2 0 1 3 0 2 2 2 1 2 4 3 1 3 8 6 1 2 1 5 3 2 1 8 8 8 8 7 8 5 4 3 4 8 12 13 13 12 12 13 12 13 14 14 13 13 14 14 14 14 14 14 14 14 15 15 15 15 15 15 15 17 17 17 18 17 18 20 20 20 20 20 21 21 20 20 20 20 19 19 19 20 21
2 3 1 2 1 2 1 2 3 1 6 3 1 1 1 1 3 4 3 2 2 2 1 6 10 13 12 11 9 4 4 3 3 1 0 0 5 6 8 10 10 10 7 5 4 4 4 7 11 13 13 13 11 12 13 13 13 13 13 13 13 14 14 14 14 14 13 14 14 15 15 14 14 14 15 15 17 17 18 17 18 21 21 20 20 20 21 20 20 20 20 20 20 20 21 20 21
2 4 3 3 3 4 1 3 1 1 5 2 2 1 1 4 4 2 3 4 5 6 6 8 8 5 2 1 4 2 0 3 4 1 2 3 10 5 8 9 8 9 8 5 5 4 4 6 11 13 14 13 12 12 13 13 13 13 13 13 13 14 14 14 13 13 13 13 13 14 14 14 14 14 14 15 16 17 16 16 16 20 21 19 19 20 20 20 20 20 20 20 21 20 21 21 21
1 2 2 3 0 4 1 2 4 6 5 5 2 1 2 7 4 4 2 1 2 2 1 1 4 2 4 7 2 3 4 0 1 2 5 5 3 8 7 8 8 7 6 5 4 4 4 7 10 13 14 13 13 12 12 13 13 13 13 13 13 13 14 13 13 13 12 12 13 13 14 13 13 15 16 15 16 18 19 19 19 20 22 21 20 19 19 20 20 20 20 20 21 21 22 20 21
1 2 2 4 4 1 1 0 4 3 4 4 6 2 3 4 7 3 1 1 1 1 2 2 4 4 1 5 1 1 3 1 1 1 2 1 5 7 7 8 8 7 6 5 5 5 5 9 10 12 14 14 14 13 12 13 13 13 12 13 13 14 14 13 13 13 13 12 13 13 13 13 13 15 16 16 17 18 18 18 19 19 21 21 19 19 19 20 19 19 19 19 20 21 21 22 21
4 2 3 3 0 2 5 2 2 1 4 4 4 4 5 5 7 4 2 1 1 2 3 4 4 4 3 2 1 3 2 4 3 0 2 5 7 8 9 8 8 7 6 5 5 4 5 9 11 12 15 15 15 14 14 14 14 13 13 13 14 14 14 14 14 13 13 12 13 13 13 13 12 16 17 16 17 18 18 18 19 19 21 20 19 18 18 19 19 19 18 18 19 20 21 22 21
1 4 4 4 1 4 3 4 2 2 1 6 5 5 7 5 4 7 3 3 3 5 2 3 6 4 5 1 1 0 2 3 2 3 2 5 5 8 9 8 8 7 6 6 5 5 6 10 11 12 13 14 15 15 14 14 14 14 14 14 13 14 14 14 13 13 13 13 13 13 13 13 12 13 18 17 17 18 17 17 19 20 21 20 19 18 18 19 18 18 18 18 19 19 20 21 21
1 3 1 2 1 2 2 1 1 3 1 4 4 9 5 5 5 4 3 3 1 2 2 4 2 5 0 2 3 1 5 0 2 2 4 5 6 8 8 8 9 7 6 5 5 4 7 9 11 12 12 15 14 14 14 14 14 14 14 14 14 14 14 13 13 13 13 13 13 13 13 13 12 13 15 17 17 17 18 18 20 20 20 19 19 18 18 19 18 18 18 19 20 21 21 21 20
4 5 1 4 1 3 3 1 1 1 1 3 2 2 7 7 5 5 3 0 1 1 2 4 3 6 2 3 1 3 3 2 2 5 6 5 8 7 7 8 9 7 7 6 5 4 4 8 11 12 12 13 14 14 15 14 14 14 14 14 14 14 14 14 13 13 13 12 12 12 12 12 13 13 13 16 17 16 16 16 17 18 18 18 18 17 18 19 19 19 19 20 21 21 21 21 20
2 2 1 1 3 3 2 1 5 1 2 3 7 6 5 4 3 4 5 4 3 3 1 1 1 3 3 4 0 2 0 0 1 5 3 6 6 6 8 8 10 10 8 6 5 5 4 8 10 11 11 12 13 14 15 14 14 14 14 14 14 14 14 14 13 13 12 12 12 12 12 12 13 13 12 12 14 14 15 16 17 17 17 18 18 18 18 18 18 19 20 20 21 21 20 20 21
1 4 2 2 4 3 3 1 1 2 2 0 1 4 7 4 6 4 2 4 0 3 1 3 5 4 3 1 2 3 3 0 3 7 3 4 5 6 6 7 9 10 9 8 6 5 4 5 9 10 11 11 12 13 13 12 14 14 14 14 14 14 14 14 13 12 12 12 12 12 12 12 13 13 13 13 15 15 14 14 15 16 16 17 18 18 18 18 18 19 19 20 21 21 21 21 21
1 0 1 3 2 7 5 7 4 2 1 1 2 3 3 5 4 4 3 6 1 2 2 4 4 5 3 0 1 1 1 1 3 3 2 1 3 3 7 5 7 7 10 8 6 5 5 4 5 8 10 10 11 12 12 12 13 13 13 14 14 14 14 14 13 12 12 12 12 12 12 12 13 14 13 14 14 14 14 15 15 16 17 17 18 18 18 18 18 19 19 20 21 21 21 21 22
3 1 4 3 1 3 4 5 4 2 1 4 6 3 3 6 6 8 6 5 2 4 1 3 9 3 1 1 2 2 1 5 3 2 2 3 3 3 7 7 6 7 7 7 7 6 5 5 5 5 6 10 10 11 11 12 12 12 13 14 14 14 14 14 14 13 12 12 12 12 12 12 12 13 14 15 15 14 15 15 15 16 17 18 18 19 19 18 18 20 20 20 19 20 21 21 21
2 4 3 0 1 5 7 3 0 5 3 3 2 1 3 3 3 7 8 6 3 5 1 3 5 5 2 2 1 3 5 5 3 3 3 4 3 4 8 7 6 7 7 7 7 7 6 5 5 5 5 6 6 8 11 11 11 12 12 12 13 13 13 14 13 13 12 12 11 9 9 10 11 12 14 15 15 14 15 14 16 16 17 18 19 19 18 18 19 20 20 19 19 21 22 22 21
0 1 3 3 2 4 2 6 10 5 4 4 3 3 2 2 4 4 8 6 4 2 1 1 4 4 4 8 4 9 9 7 4 2 6 4 4 6 6 7 7 6 7 6 6 7 6 6 6 6 6 6 6 5 6 9 11 11 12 12 13 13 12 12 12 11 11 10 10 10 9 10 11 13 14 14 13 12 12 12 15 15 17 18 19 19 18 18 19 20 19 20 21 22 22 20 20
3 5 3 1 3 4 3 2 1 5 2 5 1 5 6 1 1 5 3 4 2 1 0 1 3 1 2 8 4 13 10 7 5 4 6 5 4 5 7 6 6 6 6 6 7 6 6 6 5 5 6 6 6 5 6 7 9 11 12 13 13 12 12 12 12 12 11 11 10 11 11 9 10 10 14 12 14 13 12 10 13 16 17 18 19 18 19 20 19 19 20 20 21 21 20 19 19
2 3 0 3 1 2 3 3 6 4 2 4 1 4 4 1 0 0 0 1 8 0 4 1 1 2 4 3 3 12 9 7 6 6 7 5 5 6 6 6 6 5 5 7 7 7 7 7 6 5 6 6 6 6 6 7 8 11 10 12 13 13 12 12 12 12 11 10 10 10 9 7 6 7 8 8 11 9 11 12 13 16 17 18 17 17 19 19 20 20 20 20 20 19 17 18 18
1 0 4 1 2 3 3 4 9 2 9 5 5 5 7 4 0 0 1 6 4 2 5 2 4 4 2 2 2 11 9 10 7 10 8 7 5 6 6 6 7 7 7 6 6 7 7 7 7 6 6 7 6 6 5 6 7 9 7 7 8 10 10 11 10 8 8 7 9 7 5 6 5 5 6 8 7 9 10 13 13 14 18 15 15 18 18 18 18 19 19 19 18 16 14 9 9
2 2 3 2 4 1 4 2 5 5 5 9 7 4 8 6 6 2 3 0 2 3 2 3 3 5 5 5 7 11 10 9 9 9 10 11 9 10 8 6 6 7 7 6 6 8 7 7 7 7 7 6 7 7 6 6 8 6 7 8 7 8 8 8 7 7 6 7 6 5 5 5 5 5 5 6 7 11 11 13 13 13 14 16 17 18 18 18 18 18 18 17 17 15 9 7 7
1 3 0 2 6 1 3 3 4 2 6 7 6 3 3 4 3 1 3 5 1 6 4 1 0 1 3 4 6 7 8 9 9 10 11 11 10 10 9 9 7 8 8 8 7 6 7 7 7 7 8 8 7 6 6 7 6 6 6 7 7 7 7 6 7 7 6 6 7 6 5 6 6 6 8 11 9 7 9 12 16 17 16 13 13 10 13 15 18 17 16 14 10 7 7 7 7
1 3 3 3 3 2 0 1 1 3 8 9 7 2 2 2 3 4 4 6 3 5 6 9 10 8 10 8 8 8 9 9 9 8 9 10 8 7 9 11 11 9 6 5 5 6 7 7 7 7 7 8 8 6 7 7 6 7 6 6 7 7 6 6 6 6 6 6 6 6 6 6 6 6 6 6 6 5 6 7 7 7 7 8 8 8 7 7 8 7 8 8 6 6 7 6 7
4 0 1 1 1 1 2 1 2 2 2 9 5 7 4 2 1 4 9 7 7 8 7 8 8 13 14 13 10 7 10 12 12 10 12 13 14 12 8 5 2 2 3 7 9 6 7 7 8 7 6 7 8 7 7 7 8 7 7 7 7 6 7 7 6 6 6 6 6 7 7 7 6 6 6 6 6 6 6 5 6 6 6 7 6 7 7 7 7 6 7 8 6 6 7 6 7
2 2 0 1 2 2 1 2 3 5 5 6 7 4 4 3 1 2 7 7 4 7 6 10 7 15 17 13 13 11 11 13 13 15 14 13 12 11 10 9 9 8 7 9 8 6 6 6 7 7 7 7 8 7 7 6 7 7 8 7 7 7 6 7 7 7 7 7 7 7 8 7 6 6 6 6 6 5 6 5 5 5 6 6 5 7 7 6 7 7 7 7 6 7 7 6 7
6 3 0 1 1 4 1 0 2 4 10 5 3 3 4 3 3 1 3 5 5 3 1 3 5 7 10 12 13 16 17 16 17 17 16 17 17 17 14 12 9 5 6 8 7 8 7 8 8 7 7 7 7 7 7 7 6 7 8 8 8 8 8 7 7 7 7 7 8 7 7 8 8 6 6 7 6 4 6 5 5 6 6 6 6 7 7 6 7 7 7 7 7 7 7 6 6
3 1 1 1 1 0 1 1 5 5 3 0 5 5 2 5 1 2 4 7 4 3 2 4 9 11 9 11 14 11 11 11 11 12 8 8 8 7 6 6 6 7 9 9 8 8 9 9 8 8 7 8 7 7 7 7 7 6 8 8 8 9 8 8 8 7 7 7 7 8 8 8 7 7 8 7 7 6 5 5 6 6 6 6 7 6 7 7 6 6 7 7 7 7 7 6 6
2 2 3 1 1 1 1 4 3 4 2 2 5 1 1 2 2 3 7 6 6 1 3 5 8 10 11 12 14 13 12 14 13 10 14 11 7 8 10 9 8 10 11 9 9 9 8 8 9 9 8 8 8 7 7 7 7 8 7 8 8 9 8 9 9 8 7 7 7 8 8 9 9 9 8 7 8 8 6 6 7 7 6 6 6 7 6 7 7 7 8 8 7 6 6 5 6
3 5 3 4 0 1 2 1 1 1 2 1 4 0 0 2 3 6 2 5 4 4 4 2 9 10 11 10 11 11 13 14 16 14 6 6 8 11 11 10 11 11 8 10 10 9 9 9 9 8 7 7 7 7 7 8 8 8 8 7 8 8 8 8 8 8 8 8 7 9 8 8 9 8 9 9 8 8 7 7 6 6 7 6 6 7 6 7 7 6 7 8 8 7 6 5 6
6 8 5 5 3 2 1 3 1 1 1 2 4 1 0 2 1 7 1 2 7 9 5 6 5 8 9 9 10 9 10 11 8 6 13 12 12 12 12 13 13 10 11 12 10 8 9 11 10 9 8 8 8 7 7 8 8 8 8 7 7 8 8 8 9 9 8 8 8 9 9 7 7 8 10 9 10 9 8 8 8 7 6 6 7 8 8 8 7 7 7 8 8 7 7 6 6
5 6 4 2 4 1 1 2 1 0 0 0 0 1 2 1 4 8 2 1 6 7 8 7 7 6 6 7 7 6 11 9 7 8 13 14 12 10 14 13 12 11 9 10 10 10 12 11 10 9 8 7 8 8 8 7 7 7 7 7 6 7 7 6 7 8 9 8 8 10 9 9 8 9 8 9 9 9 8 8 7 7 7 7 7 9 9 8 9 8 7 7 8 7 7 7 6
3 5 5 3 1 2 2 1 1 1 1 1 1 2 7 8 12 4 1 5 5 5 6 6 6 5 5 6 7 8 7 6 8 13 12 11 10 11 13 10 10 10 9 7 9 12 10 7 7 7 8 9 8 6 6 7 7 6 6 6 6 7 6 7 8 6 6 7 8 10 10 9 8 7 9 8 8 8 8 8 9 8 7 7 8 9 9 8 8 9 8 8 7 8 8 7 7
2 1 3 2 3 3 2 0 0 4 1 1 1 3 4 3 6 6 5 5 9 8 7 6 6 6 5 6 7 9 10 10 13 13 11 10 9 8 11 7 9 8 7 8 12 12 10 9 8 7 8 8 7 7 7 7 6 6 6 5 6 7 6 7 7 7 8 8 8 9 11 11 11 10 9 10 9 8 8 8 8 8 9 9 8 7 8 7 8 10 9 10 8 7 7 7 7
2 5 2 1 3 3 3 1 4 4 0 3 4 0 7 8 8 5 2 4 6 7 7 7 7 7 7 6 8 9 11 9 10 8 10 10 10 10 10 10 9 9 11 11 9 9 10 8 8 8 8 8 8 8 6 6 6 6 6 6 5 6 6 6 6 7 7 7 9 8 10 11 9 8 10 10 10 9 9 9 8 9 10 9 8 8 7 8 8 8 8 11 11 9 9 8 6
4 2 1 2 1 2 1 0 1 3 2 3 2 4 3 3 3 2 2 2 3 6 6 6 8 9 9 8 9 9 8 7 8 10 10 10 10 9 10 9 10 11 9 9 11 9 9 9 9 9 10 9 8 6 5 4 5 5 5 5 5 5 6 6 6 5 6 7 6 8 10 11 13 12 10 9 10 10 9 9 9 11 10 9 9 9 9 7 8 8 8 6 10 10 10 10 7
3 2 2 3 4 1 2 3 1 1 1 2 2 1 6 4 6 5 4 1 2 4 7 8 8 8 9 8 7 8 8 9 11 12 13 11 10 10 8 9 9 9 8 10 10 12 12 10 9 9 8 7 7 7 6 5 5 4 4 4 4 5 4 4 5 5 5 5 5 4 7 12 12 12 13 12 10 11 11 10 10 11 11 10 9 9 9 9 8 8 9 7 8 11 10 10 10
8 3 1 1 0 4 2 3 1 1 2 2 1 2 9 10 9 9 6 1 1 7 8 9 9 9 9 8 8 8 9 10 14 12 11 11 10 9 8 7 7 7 7 8 8 7 7 8 7 7 7 7 6 5 5 5 5 4 3 4 4 3 2 2 2 4 3 5 5 5 4 5 9 13 12 11 10 10 10 10 10 12 11 11 10 10 10 9 9 9 11 10 8 8 10 9 10
9 9 6 4 5 4 2 3 2 2 1 2 3 6 8 9 7 9 9 4 5 9 8 8 9 8 8 9 9 7 9 12 12 7 7 8 9 9 9 6 6 7 6 7 7 7 8 6 6 6 6 6 5 5 5 5 5 5 6 3 3 2 2 3 1 2 2 3 4 4 4 5 4 7 13 14 12 9 10 10 11 10 10 11 12 12 11 10 12 12 11 12 12 9 8 10 11
5 4 4 4 5 0 1 1 1 0 1 5 5 5 6 11 10 10 9 3 3 7 11 12 11 11 10 10 10 10 9 14 5 5 5 7 8 7 7 6 7 6 6 7 8 8 9 10 8 9 6 5 7 7 5 6 5 3 1 5 5 4 4 2 3 1 2 2 3 4 4 4 6 7 6 9 12 12 11 11 12 11 9 10 11 13 13 12 10 10 11 9 12 12 10 9 10
7 6 5 1 0 3 1 0 1 2 1 2 2 2 9 13 12 12 9 4 11 12 11 12 14 12 11 10 12 10 11 3 2 3 5 5 7 7 6 7 7 9 9 9 11 10 8 6 9 8 5 5 6 6 6 5 3 3 4 4 2 4 3 4 3 2 3 1 2 2 4 3 5 6 8 8 9 11 11 10 12 13 11 9 7 8 10 9 10 11 11 10 8 12 10 11 12
3 6 4 5 0 0 1 1 2 1 2 5 3 4 9 10 11 11 9 12 11 7 9 12 11 11 10 10 11 10 6 7 4 6 5 7 8 7 8 8 9 12 10 11 8 8 7 8 7 6 6 6 5 5 6 5 2 2 3 2 4 2 1 0 1 1 1 2 2 2 3 4 5 5 7 8 9 10 12 12 11 10 11 11 11 11 12 13 12 13 14 13 11 5 8 9 13
7 5 3 4 3 3 1 4 2 1 1 2 1 6 12 7 6 12 14 9 9 5 8 12 9 11 11 13 9 8 9 8 9 8 9 7 7 8 6 8 9 6 7 6 7 10 8 8 7 6 7 5 6 5 6 4 4 3 3 4 3 3 3 1 1 1 0 1 3 2 3 4 5 6 5 7 9 9 10 12 11 11 11 11 12 12 13 12 12 12 11 11 12 12 10 10 9
2 3 3 4 2 2 3 2 0 2 1 2 2 3 9 4 4 5 3 3 4 6 4 7 9 9 10 6 5 7 11 9 9 6 5 6 7 11 13 9 7 8 9 10 10 10 8 10 8 8 7 7 6 6 6 5 6 5 5 5 3 4 3 2 2 2 3 3 3 4 5 4 6 6 7 8 7 9 9 9 11 11 11 12 11 12 14 14 14 13 15 14 15 15 13 9 10
1 2 3 4 5 5 1 2 3 3 1 2 3 3 4 4 7 8 10 6 6 2 5 10 8 6 6 9 11 7 8 7 7 9 11 12 12 7 5 6 9 8 9 9 8 8 8 8 8 7 6 6 7 7 7 7 7 8 6 6 6 4 5 5 8 8 6 6 6 2 2 4 5 6 6 7 9 9 10 11 11 12 12 11 11 11 11 10 11 13 15 15 15 11 13 13 10
3 2 2 4 7 6 4 1 2 1 1 1 2 1 7 7 6 6 8 5 10 12 9 14 14 6 5 6 5 7 8 7 5 5 3 5 5 6 6 8 9 10 8 6 6 7 8 8 8 8 8 7 7 7 7 7 7 7 9 9 8 8 8 5 3 3 5 4 3 5 5 3 4 6 6 7 7 9 9 10 10 11 12 11 10 10 11 14 13 13 10 11 12 10 9 13 14
2 1 6 6 7 5 3 5 2 1 2 3 4 2 3 8 9 8 5 5 10 10 14 14 13 5 3 5 7 6 6 6 8 6 5 5 7 10 13 11 9 10 6 6 7 7 9 9 9 9 7 7 7 8 8 8 9 8 8 7 7 8 8 7 7 4 3 4 5 5 5 5 5 6 7 7 8 8 9 9 10 10 9 11 11 12 13 12 10 10 12 11 9 9 12 12 12
2 3 7 3 5 4 5 5 3 0 1 7 3 1 1 5 9 5 1 3 5 10 12 12 11 7 5 6 5 6 7 5 3 5 7 9 10 9 6 8 6 5 7 9 9 9 8 7 8 7 8 8 7 9 10 8 8 9 9 8 8 7 7 6 5 5 5 5 6 4 5 6 5 5 6 7 8 9 10 11 11 11 11 11 11 10 10 12 15 15 13 12 12 12 12 10 9
1 5 6 6 7 6 4 3 3 1 1 5 2 2 3 8 7 7 3 1 7 10 10 10 10 8 7 4 4 3 2 2 3 4 3 5 5 5 4 3 5 7 5 5 5 5 6 7 8 9 9 8 8 9 9 9 8 8 8 8 9 7 6 6 7 7 6 6 7 7 6 6 6 5 6 7 7 8 9 10 11 13 13 12 11 11 12 13 13 14 16 16 14 13 9 9 11
8 6 7 6 8 4 3 7 2 2 1 7 6 2 2 5 5 7 3 5 6 4 7 6 5 4 3 5 3 1 1 1 2 2 1 1 1 2 4 6 6 4 4 5 6 7 7 8 9 10 9 8 8 9 9 10 9 8 9 8 9 8 7 7 7 7 7 7 8 8 7 7 6 7 6 6 8 8 9 9 10 11 11 11 11 12 12 13 14 14 13 13 12 14 11 10 7
6 3 4 5 3 6 4 4 4 1 5 5 1 1 2 6 5 5 8 6 4 4 7 8 5 3 3 4 3 2 1 0 1 1 0 1 2 2 3 5 5 5 5 6 6 6 7 8 8 9 8 8 8 9 9 9 9 9 8 8 9 8 8 8 9 10 9 10 9 9 7 6 7 6 6 6 7 9 9 9 10 11 10 10 12 12 11 12 12 11 11 11 12 12 9 9 7
6 7 7 7 2 4 2 3 1 4 5 0 2 1 1 10 8 7 8 9 7 7 8 6 4 5 5 5 4 3 2 1 1 2 2 2 4 6 6 5 4 5 8 8 8 8 7 8 9 10 10 8 9 8 10 9 9 9 9 9 8 8 9 9 9 9 9 10 9 9 8 8 7 7 8 8 9 11 10 10 11 11 11 12 13 13 12 13 12 12 12 12 12 13 11 11 9
5 7 6 5 1 1 2 3 1 5 6 5 1 1 5 3 6 14 15 12 6 6 7 5 5 6 5 4 4 4 3 2 4 4 4 5 5 5 5 5 6 6 6 8 8 8 7 7 8 10 10 9 8 8 9 10 10 9 8 8 8 8 9 9 9 9 9 9 8 10 10 9 9 11 10 10 10 11 10 11 12 13 12 12 13 13 11 11 12 11 12 13 13 12 10 11 10
7 1 9 9 8 5 4 4 5 5 5 2 3 1 7 3 2 1 8 11 5 6 7 4 3 4 4 5 4 3 4 4 4 4 5 6 6 5 6 5 6 6 7 7 6 6 6 7 8 10 8 8 9 10 8 10 9 9 8 8 8 7 8 8 8 7 8 9 8 9 9 8 9 10 11 10 9 9 9 9 10 11 11 11 11 11 11 11 12 10 10 12 11 10 11 11 10
0 3 5 6 6 6 1 4 2 0 1 1 1 6 4 5 2 7 7 6 8 7 6 4 2 2 1 1 4 5 5 5 5 5 6 7 5 4 4 5 6 6 7 6 7 7 8 9 8 9 10 9 9 9 9 10 9 8 8 9 9 8 7 7 7 7 7 8 9 9 9 9 9 8 9 9 9 8 9 10 9 11 10 10 11 11 10 9 10 11 10 10 12 7 10 12 10
4 4 4 5 2 8 5 1 1 1 3 8 2 8 6 8 6 9 6 3 9 6 6 5 6 4 2 5 5 5 5 5 6 7 8 7 5 5 6 7 7 6 6 9 8 8 9 8 8 8 8 6 9 10 10 9 9 8 10 10 9 9 9 10 9 9 9 8 8 8 8 9 8 8 8 8 9 8 9 10 10 11 10 10 10 11 10 10 11 11 11 11 12 9 10 12 9
7 1 7 2 2 4 5 3 2 2 3 7 1 7 4 3 7 4 1 2 5 5 7 7 6 5 5 8 5 6 8 8 7 7 6 5 4 5 6 6 7 8 8 7 8 7 7 7 8 9 9 10 9 9 10 9 10 10 9 10 10 10 9 9 9 9 8 8 8 7 7 7 8 8 7 7 8 8 8 8 8 9 9 9 11 11 11 12 11 10 11 11 11 10 11 8 9
3 4 3 7 3 1 1 4 2 1 2 5 4 2 6 9 9 2 1 2 3 2 6 7 8 9 9 9 4 5 5 4 6 8 8 7 7 7 8 9 7 6 6 6 5 6 6 6 7 9 11 10 9 8 7 7 7 7 7 9 9 10 9 8 8 8 8 9 10 9 9 9 8 8 8 8 8 8 7 7 6 6 6 7 7 8 8 8 9 10 9 9 8 9 10 10 8
1 2 3 0 2 2 5 6 4 5 4 1 8 4 9 6 7 8 6 6 5 3 4 6 12 11 9 7 4 4 5 7 9 8 7 7 8 8 9 9 8 8 7 6 6 6 7 7 7 8 5 5 5 7 7 9 8 7 7 6 7 8 8 9 9 9 9 10 9 9 9 9 9 8 9 9 9 10 10 10 9 8 8 8 8 8 9 9 9 10 9 9 8 10 11 11 9
1 2 3 1 1 2 4 1 3 3 4 5 2 7 8 7 6 8 9 7 6 6 8 7 7 9 6 6 6 6 5 5 5 6 6 8 9 7 7 6 5 4 5 5 6 8 8 7 8 7 9 8 9 9 8 9 7 8 8 9 8 8 8 8 9 9 10 10 9 9 9 9 6 8 8 9 9 10 10 10 10 10 9 9 8 8 8 9 10 10 9 9 9 10 12 9 9
11 13 12 12 9 5 5 6 2 2 3 3 2 10 10 6 3 8 6 8 7 6 6 7 6 7 7 7 6 5 4 5 6 5 5 6 6 6 5 4 4 4 6 7 7 7 7 9 10 9 9 10 10 9 9 9 8 8 10 10 9 7 8 7 10 10 10 10 9 9 8 7 8 8 8 10 10 9 9 10 10 10 9 9 9 10 9 10 11 10 10 7 9 10 9 9 10
Wind_Direction
340 325 281 193 68 89 61 3 120 310 65 139 143 61 179 77 217 76 117 335 58 297 289 23 56 62 151 177 141 128 61 132 216 133 214 225 132 134 137 136 130 128 135 149 153 138 131 135 129 127 123 122 123 118 115 110 105 101 99 96 93 90 88 86 84 82 84 88 91 92 90 89 90 93 93 93 89 93 92 89 91 91 88 85 85 86 88 87 84 79 74 69 60 59 69 80 83
317 327 359 143 115 75 267 129 99 12 37 63 172 99 147 309 58 144 155 158 193 108 112 86 72 76 80 106 125 116 48 17 213 195 24 61 113 110 141 142 142 138 142 148 145 136 135 135 132 131 127 128 126 120 117 111 106 104 102 98 95 92 90 89 86 86 87 89 91 92 91 91 92 94 96 94 97 98 103 104 98 93 91 89 89 89 88 87 84 79 73 68 64 64 69 79 82
338 15 61 37 30 85 78 41 286 58 91 128 270 212 328 79 134 229 218 155 160 126 122 102 101 86 76 78 30 45 310 332 74 38 97 167 119 169 149 143 142 137 141 146 141 139 136 136 136 134 133 134 130 123 120 115 111 109 105 100 96 93 92 92 90 88 88 90 90 90 92 95 97 96 87 75 74 74 83 90 95 95 91 89 89 86 83 83 80 75 73 71 72 71 76 81 81
42 32 139 89 312 24 62 28 90 127 129 202 91 287 151 148 179 180 212 204 167 139 198 32 52 298 106 60 120 83 67 345 297 142 132 176 181 150 152 141 136 131 130 139 141 138 138 141 138 137 136 135 132 127 124 119 117 115 110 104 99 97 96 94 94 93 94 94 94 95 96 99 99 93 84 86 82 83 84 83 81 93 95 92 92 89 86 84 82 76 74 75 74 70 77 81 81
64 318 97 94 103 356 111 149 137 99 143 193 162 266 220 186 159 190 221 255 307 162 77 112 70 348 92 119 74 126 193 99 251 218 150 202 131 143 142 136 133 131 134 139 137 138 144 144 138 137 139 139 137 133 130 127 122 119 115 110 106 103 101 100 100 99 99 98 98 98 100 102 99 92 87 87 90 87 87 90 95 96 94 94 94 90 89 90 83 78 73 68 73 76 77 83 84
48 22 360 87 59 166 48 45 39 101 218 148 119 210 211 201 153 188 156 224 212 53 121 63 148 179 20 349 177 106 152 126 198 8 145 158 143 143 142 138 131 134 137 134 138 141 146 143 139 141 142 142 141 139 136 134 129 125 122 118 114 110 108 107 105 104 103 102 102 103 104 101 95 94 91 90 92 92 92 95 93 94 92 92 93 92 90 90 86 79 71 68 69 74 78 80 82
230 41 352 26 7 54 180 123 141 157 291 154 173 169 193 215 198 130 135 101 339 54 26 129 114 91 77 312 21 85 276 224 102 197 154 156 144 141 140 137 131 133 139 140 137 141 151 149 148 143 144 144 143 145 143 139 135 131 127 123 118 114 111 109 108 107 106 105 106 106 107 102 96 100 95 93 92 94 95 95 94 91 91 94 93 93 96 96 89 79 70 69 68 72 77 78 78
104 104 288 100 238 51 49 189 144 158 355 166 182 147 199 199 190 120 155 99 175 91 44 116 146 98 217 34 155 276 343 53 217 122 130 126 134 140 137 137 130 138 141 143 142 143 154 156 146 141 146 145 146 147 145 143 138 135 130 126 122 117 115 112 110 109 110 110 109 110 108 105 102 101 103 99 96 94 95 92 90 89 91 92 94 95 99 102 95 79 74 72 73 76 78 78 77
358 85 350 66 67 22 59 64 56 223 30 95 152 225 173 181 180 126 106 211 104 71 120 151 189 91 210 43 66 275 315 326 78 116 127 125 126 141 140 140 137 142 143 145 143 143 146 151 141 144 146 146 149 149 148 143 140 137 134 129 126 122 119 116 114 113 112 112 110 108 107 104 102 100 103 109 106 101 98 96 93 92 92 94 95 97 100 101 95 84 80 78 80 79 78 77 75
31 72 265 159 127 72 37 309 81 178 173 217 156 179 172 192 179 116 134 93 164 125 106 121 118 114 129 111 5 317 254 315 96 98 118 129 130 133 143 146 142 143 144 145 145 142 147 147 146 146 147 149 150 151 148 146 144 141 137 133 129 126 123 118 115 114 113 112 111 110 108 106 105 106 106 106 101 92 96 96 96 95 96 97 98 101 99 97 97 91 85 86 86 82 78 77 76
12 8 144 76 32 124 150 224 146 61 145 213 280 191 186 170 127 122 130 142 74 129 179 88 48 113 86 210 209 250 274 15 133 157 187 155 133 140 142 146 145 147 148 149 146 146 147 147 149 147 151 153 151 149 148 148 146 143 140 137 132 129 125 121 118 117 116 116 115 114 112 109 106 107 105 101 96 97 100 99 97 100 101 100 102 104 102 99 96 93 91 90 89 87 82 80 78
54 53 4 110 168 160 212 149 166 202 264 129 181 211 225 139 107 98 106 119 225 114 150 120 177 141 63 94 298 309 328 206 192 184 209 128 88 123 149 143 144 150 150 148 145 146 145 146 145 152 152 153 149 146 148 150 147 145 143 139 135 131 128 126 124 123 122 120 118 118 116 113 112 109 107 103 102 102 104 106 107 107 106 104 106 105 101 101 102 99 96 93 90 89 88 86 84
118 114 79 90 204 106 143 118 193 148 144 208 169 224 145 123 160 163 164 125 143 110 107 243 140 86 112 179 277 291 245 214 216 202 186 101 100 120 141 139 145 143 145 145 145 146 148 146 147 145 143 144 142 145 149 150 147 148 146 141 138 134 132 131 130 129 126 125 123 121 117 113 111 110 105 104 103 105 107 108 108 108 108 108 108 105 100 104 103 100 96 92 92 92 92 89 85
112 178 122 133 69 115 133 184 3 136 250 234 254 140 167 126 211 165 129 120 200 139 223 159 133 126 103 60 292 239 232 215 206 194 109 92 92 125 135 133 140 145 148 152 151 151 147 147 144 136 130 129 137 144 151 151 149 147 146 142 139 137 136 136 134 132 128 122 116 110 110 112 110 106 105 105 104 100 104 105 107 108 109 111 109 104 105 106 105 101 98 96 96 95 94 92 84
103 141 82 114 56 107 225 123 191 158 212 182 218 131 80 6 108 150 153 137 225 217 182 90 161 113 230 152 256 205 202 197 184 160 101 96 104 117 125 132 139 144 151 156 153 153 154 150 149 148 143 139 146 144 148 153 150 148 148 143 140 139 138 135 131 124 119 119 116 106 93 87 91 95 98 96 93 93 94 99 107 110 112 113 107 104 102 101 103 101 98 96 95 93 92 88 82
145 82 82 123 143 142 224 121 69 119 206 171 208 130 84 343 159 130 247 146 164 347 62 159 11 241 161 167 211 188 183 164 169 125 111 105 102 107 121 131 139 150 159 159 162 166 157 154 157 155 154 152 147 146 143 151 151 150 148 144 141 139 136 131 126 124 121 117 112 107 101 95 91 96 99 99 99 98 99 104 110 113 113 113 107 104 101 100 99 100 98 97 94 91 84 81 80
64 84 348 29 120 155 222 144 152 194 236 220 280 159 132 175 261 252 54 111 118 13 55 18 319 3 165 215 267 151 157 140 130 123 118 127 128 131 130 137 144 156 162 171 171 171 164 161 165 162 162 158 152 153 148 149 155 149 147 145 140 138 136 134 127 122 119 117 113 109 103 96 97 97 95 101 99 102 106 105 109 115 117 114 106 97 94 95 100 101 100 95 86 81 75 72 71
58 91 115 41 192 142 210 174 187 216 138 209 176 197 116 134 297 256 68 43 75 42 62 334 20 36 333 290 161 139 135 144 152 140 149 152 156 153 157 162 160 171 168 170 177 167 168 169 171 168 164 164 155 151 146 148 153 149 146 142 139 137 134 129 128 130 129 126 121 113 109 106 99 99 101 104 105 105 105 110 112 116 119 107 98 97 94 92 93 92 91 89 85 77 67 67 64
109 108 88 215 186 230 160 212 214 136 188 171 183 175 149 192 140 220 100 234 113 72 14 20 22 7 25 55 118 133 143 154 161 162 161 169 174 175 173 172 176 163 176 171 178 170 174 169 173 173 172 167 159 155 151 149 154 151 150 147 143 138 139 138 137 135 137 135 128 117 113 112 108 101 103 107 113 114 115 119 114 95 85 88 94 95 95 92 90 90 88 86 83 76 67 60 60
218 118 189 249 206 220 189 204 210 256 153 146 149 217 145 199 145 181 149 167 106 162 165 337 138 219 146 135 138 143 153 166 173 172 177 181 183 179 178 183 187 186 179 178 176 169 171 171 177 177 176 171 166 164 159 153 161 154 157 153 147 145 146 146 144 142 145 144 135 128 123 118 112 108 107 106 106 111 116 103 94 96 88 77 73 72 73 80 84 80 80 76 71 71 76 67 68
228 72 162 216 194 108 288 58 293 262 168 153 157 123 140 217 197 149 155 113 260 258 223 167 200 183 175 173 162 159 162 172 183 187 188 190 195 195 195 190 189 187 181 157 167 188 177 173 171 182 177 175 172 169 159 163 162 157 159 157 152 153 153 153 153 149 152 148 140 134 131 123 120 119 116 111 111 114 113 110 104 98 102 94 89 93 91 83 78 81 77 70 68 74 79 74 76
82 139 203 200 86 93 257 273 319 121 52 123 130 135 206 121 70 115 147 163 212 212 222 218 191 167 161 171 181 170 171 176 187 190 197 195 195 197 200 220 253 181 163 179 188 186 190 183 174 179 177 179 176 172 171 167 163 163 162 161 155 159 159 159 160 159 156 155 147 138 130 127 128 124 126 124 124 130 123 117 111 111 103 105 103 104 104 100 92 90 88 87 78 72 74 80 77
112 313 280 231 229 135 282 343 344 130 118 129 141 194 112 131 171 176 165 184 231 215 206 202 183 172 177 163 159 174 178 185 188 197 196 200 204 207 204 200 191 191 191 200 188 194 194 190 186 175 179 183 179 173 170 171 173 167 165 166 163 165 166 163 169 165 165 162 152 147 140 137 133 134 132 135 137 139 134 122 113 108 107 106 103 107 100 96 96 91 88 87 89 86 76 78 84
105 188 278 8 119 119 242 355 63 114 122 164 196 106 134 128 152 160 183 244 234 261 228 227 160 133 135 153 182 179 185 186 195 198 197 199 197 200 199 195 200 190 190 198 195 193 195 196 191 179 179 181 182 177 171 179 179 170 167 165 172 169 168 173 173 172 168 169 160 159 151 147 146 146 146 145 145 144 139 116 102 101 106 106 109 108 107 101 101 102 102 96 94 91 93 82 87
98 123 211 224 43 26 337 64 74 99 70 75 101 124 200 168 160 98 239 233 249 262 46 104 128 140 157 166 180 192 194 200 206 205 209 221 219 218 219 215 198 189 200 200 195 193 198 195 188 189 177 184 182 175 174 181 183 178 169 174 177 171 176 176 176 172 172 176 166 163 161 151 154 153 156 155 150 152 137 120 113 113 115 117 118 111 115 114 106 107 103 101 101 101 97 92 89
155 166 126 49 96 8 346 50 37 76 107 95 101 47 326 239 271 230 225 230 216 100 72 111 128 144 169 183 186 187 196 202 205 201 207 205 202 201 214 208 198 200 205 194 189 199 193 191 189 191 183 182 179 174 179 180 184 185 181 180 179 172 181 176 176 178 177 177 171 172 172 159 161 161 159 158 156 157 143 127 126 131 121 123 118 119 119 115 120 114 111 106 92 92 88 86 92
141 94 93 114 70 51 359 130 4 8 84 291 140 122 312 335 50 281 276 230 142 109 133 153 148 172 185 187 193 198 195 204 202 204 198 203 207 205 213 207 206 206 188 198 195 194 191 190 194 190 186 183 175 178 178 184 183 189 186 182 178 181 182 177 180 184 179 182 175 172 174 172 159 162 162 161 162 157 147 138 136 130 123 125 124 117 119 118 117 115 121 121 117 108 96 92 95
91 129 83 30 348 40 11 78 17 23 31 75 118 125 328 322 81 231 230 166 166 153 177 174 190 184 192 198 196 202 207 216 210 177 200 196 206 204 205 204 207 196 191 198 195 186 186 195 192 192 189 187 178 181 175 184 186 188 188 187 184 184 185 181 179 185 186 181 174 174 174 173 168 165 166 165 162 159 151 146 141 136 133 134 132 129 123 124 123 114 111 109 111 108 107 103 95
145 107 84 334 13 53 338 139 259 68 246 102 178 57 314 293 216 243 237 134 176 169 181 194 201 208 204 204 206 206 215 212 195 205 212 209 206 202 207 207 199 196 205 191 185 183 190 191 190 193 189 191 185 185 179 183 185 185 186 188 188 182 184 183 180 184 183 182 176 175 178 176 174 168 172 169 163 158 150 144 139 137 140 138 132 128 128 129 124 123 113 113 108 106 103 95 86
110 38 120 35 10 352 249 335 335 94 250 44 348 228 269 245 238 243 350 133 159 163 196 207 216 215 217 212 212 221 231 218 211 214 215 212 208 206 211 205 200 197 190 186 178 191 189 188 188 185 187 192 194 183 180 180 188 183 183 186 185 183 186 188 188 183 181 181 178 176 176 177 177 175 165 163 161 152 146 149 146 142 141 136 135 135 135 139 132 128 128 119 109 111 108 103 102
132 208 56 130 105 244 297 290 274 133 176 73 102 183 288 276 269 278 282 172 153 190 208 212 222 230 227 220 221 223 228 214 215 216 217 216 212 211 213 198 195 193 176 183 190 188 182 185 180 186 185 190 188 184 179 183 180 177 179 184 186 185 186 192 192 189 186 185 182 184 179 179 181 174 172 163 161 152 148 147 147 146 141 141 141 145 140 139 135 136 139 125 118 110 107 100 99
50 74 274 327 156 274 293 321 163 158 309 66 91 91 234 259 273 281 312 165 165 190 210 217 221 228 228 225 224 229 230 222 233 233 222 216 209 211 206 203 188 189 189 187 185 180 185 184 183 181 184 185 190 184 175 170 171 172 175 176 176 184 185 193 190 190 192 192 184 185 184 175 180 174 171 165 158 159 156 156 153 149 145 143 145 142 138 143 142 137 142 135 128 124 118 107 97
7 95 248 209 93 237 353 255 215 218 126 0 162 213 320 314 284 302 12 138 178 207 229 230 230 229 228 225 223 227 239 245 239 233 226 215 216 211 207 197 192 192 186 177 180 179 183 182 181 177 183 184 180 171 150 140 137 149 159 162 167 171 181 191 192 186 186 188 199 186 183 180 180 173 173 173 163 159 159 157 155 152 148 146 150 148 149 149 145 140 135 133 129 130 124 117 107
239 38 171 209 157 204 255 300 297 54 111 221 15 188 234 259 286 296 317 114 186 223 243 243 239 238 234 234 231 230 231 229 226 223 224 213 214 211 208 198 190 184 186 183 179 178 181 179 182 180 176 174 169 165 156 135 124 117 120 131 140 157 176 181 187 182 183 184 178 205 199 180 184 176 171 171 172 165 159 154 151 152 151 151 151 151 153 151 148 147 133 131 131 129 129 128 121
196 195 149 252 332 177 207 161 237 82 18 185 1 244 273 265 282 292 270 320 207 241 237 240 240 241 246 240 234 229 231 230 232 220 213 208 207 208 202 192 183 181 181 181 176 178 165 173 169 175 168 165 158 139 119 105 103 89 82 108 120 129 122 116 157 184 183 163 184 172 182 196 185 172 172 169 167 158 149 151 155 160 156 156 153 153 157 160 154 151 140 134 130 127 131 127 122
181 174 174 151 141 221 219 247 280 154 151 223 202 215 252 272 276 273 284 257 227 247 256 262 258 254 253 249 247 236 229 237 238 222 211 205 205 195 197 184 179 176 173 173 174 170 169 166 170 166 175 163 140 125 119 112 109 137 137 92 120 148 139 137 103 171 183 170 168 165 170 177 179 188 177 165 155 157 152 153 153 162 163 159 159 158 164 167 159 149 144 139 133 122 121 128 129
120 87 98 170 150 265 290 292 271 58 98 238 231 257 273 274 263 268 269 291 248 255 257 252 252 249 246 245 241 238 233 235 241 219 207 204 203 199 189 174 172 171 173 175 174 181 178 176 165 183 177 164 157 151 147 148 140 131 123 186 182 180 177 165 162 148 185 179 163 165 164 171 171 169 179 167 159 158 160 157 156 166 168 167 168 166 166 161 154 142 134 138 137 134 134 139 135
136 129 118 135 91 162 227 170 358 328 139 298 15 283 262 259 270 267 271 292 263 238 241 249 248 243 243 241 246 235 235 280 225 220 213 194 197 196 180 175 166 170 198 181 184 185 177 168 180 173 164 175 175 164 155 160 160 169 154 175 150 155 164 178 191 227 200 175 174 172 161 171 173 172 169 167 161 156 153 162 165 165 167 167 158 155 152 141 145 147 143 136 152 145 146 158 156
46 135 156 102 52 221 317 300 328 310 76 265 352 328 271 262 262 268 253 246 249 233 220 237 238 249 246 246 247 247 245 242 231 230 209 204 196 188 182 185 190 193 181 185 179 162 173 178 184 169 174 171 171 157 151 167 130 133 133 158 149 115 25 105 154 193 194 179 201 195 187 174 174 173 169 163 163 166 163 162 171 168 166 158 155 167 163 161 162 159 160 152 150 154 143 170 175
106 95 112 190 225 108 259 281 345 359 93 296 326 322 283 281 271 259 259 240 262 254 232 245 232 242 240 237 233 238 244 242 229 213 208 206 192 186 181 189 193 179 170 173 172 178 177 180 179 172 173 167 164 169 162 149 129 112 92 122 110 111 172 112 66 65 91 172 224 210 221 192 181 173 169 166 165 167 169 168 163 167 166 164 162 163 167 166 162 163 161 158 151 147 167 182 203
15 118 121 127 166 217 149 191 156 339 10 53 2 316 299 326 344 329 306 317 288 285 298 265 257 236 250 277 284 226 237 229 231 217 228 194 186 194 194 188 165 177 182 183 179 181 181 181 178 173 170 172 169 167 163 145 119 95 88 72 81 78 54 88 106 229 210 219 208 204 215 201 190 185 176 170 170 170 170 167 169 169 164 171 173 171 170 173 172 168 163 160 168 163 170 174 197
348 246 169 186 164 127 86 23 114 21 352 326 45 358 309 301 304 250 274 331 314 274 340 292 259 245 254 250 248 255 251 241 222 211 204 197 196 188 175 170 181 186 187 190 180 176 168 174 174 172 164 166 173 176 166 156 162 154 147 146 163 181 191 184 201 200 198 203 207 187 197 206 197 185 184 181 174 172 174 172 168 168 171 171 173 175 170 158 166 174 178 172 173 183 170 168 178
111 236 170 151 133 115 117 76 74 358 171 321 40 158 269 323 293 292 284 308 298 305 298 279 284 260 233 245 249 243 240 253 253 237 190 178 201 183 192 189 190 188 196 166 169 174 175 173 176 171 171 174 174 173 167 164 166 177 183 187 189 194 200 211 199 200 195 199 182 194 201 204 204 187 187 185 176 174 170 168 172 177 174 173 173 170 171 176 175 175 174 180 186 174 172 176 180
189 234 117 115 103 113 150 107 116 200 257 296 35 113 208 301 287 244 305 326 291 296 284 279 271 304 265 249 241 242 243 227 213 212 193 198 194 189 193 194 188 195 167 162 173 174 177 178 175 177 172 173 177 170 175 177 177 184 189 193 193 198 203 198 189 193 183 185 197 197 190 202 205 202 188 184 180 172 170 169 170 171 176 180 175 179 180 176 170 178 186 187 179 186 187 184 181
216 182 130 146 139 144 117 93 104 91 60 285 333 276 272 253 267 303 329 319 304 274 267 271 285 297 267 265 271 250 236 233 205 186 194 194 196 204 195 190 193 158 169 178 183 181 176 173 173 170 177 176 180 177 178 188 185 185 189 189 196 202 194 186 177 176 187 190 201 202 200 197 199 208 198 186 184 179 174 175 174 176 179 182 184 178 174 175 179 178 183 184 190 193 197 193 172
263 134 89 86 77 68 91 98 85 350 61 270 251 179 214 277 277 327 339 256 262 261 269 273 273 278 284 276 262 263 290 260 236 233 224 214 209 204 190 144 159 192 184 175 170 162 169 165 173 179 188 182 178 182 184 189 189 185 191 197 197 195 188 178 174 181 191 188 201 198 202 199 197 196 201 194 185 184 181 179 180 181 181 179 181 182 180 184 185 188 188 191 192 191 194 190 190
124 93 77 35 38 29 26 60 88 67 311 252 238 291 175 295 269 227 159 209 204 265 296 289 291 301 296 266 246 243 135 167 225 244 259 233 233 186 158 178 187 176 173 171 173 175 173 175 179 187 191 182 181 185 186 192 192 193 198 197 199 196 193 176 178 187 184 190 200 200 199 202 195 196 192 199 190 183 185 181 183 183 181 179 182 183 186 187 188 191 191 192 193 193 191 191 191
119 98 124 64 353 14 28 342 35 158 271 265 244 211 129 190 288 283 239 267 238 228 263 281 299 292 278 260 265 266 283 198 54 96 249 138 127 167 172 190 186 186 171 181 184 179 181 184 181 187 191 189 187 189 190 196 194 200 204 198 199 200 192 194 192 189 191 195 197 197 197 196 201 199 195 194 196 189 185 186 187 184 184 185 190 192 191 190 189 188 187 191 195 200 198 187 182
81 86 64 125 241 40 276 14 261 219 209 257 337 161 334 241 221 262 279 262 260 220 218 232 268 274 271 271 266 268 285 316 111 183 192 189 188 189 197 201 181 189 194 190 189 187 185 185 185 186 197 191 193 189 195 197 198 202 203 203 202 200 202 200 201 198 192 197 195 194 190 198 194 200 201 196 201 193 188 188 187 188 189 192 193 194 194 189 186 186 189 192 195 194 192 190 185
110 137 138 100 115 82 247 274 249 307 290 266 294 305 254 261 273 230 244 247 211 226 227 245 255 248 252 263 284 278 268 244 245 219 197 207 205 208 206 196 194 199 203 199 195 190 187 188 190 195 200 189 191 195 197 199 206 204 204 206 204 198 207 205 208 204 199 201 194 196 194 195 196 202 198 205 198 197 196 196 191 193 195 196 195 195 190 189 187 187 188 191 196 197 190 191 191
202 98 147 176 146 156 208 195 201 214 205 289 283 64 234 125 255 295 246 271 284 264 271 267 246 240 250 267 267 276 282 262 242 240 218 215 218 204 200 199 202 206 204 202 199 193 186 195 192 202 198 195 194 199 197 205 206 206 206 209 209 204 206 208 214 210 201 202 201 200 200 198 200 201 202 205 194 195 202 201 199 197 194 195 193 195 193 187 187 190 192 195 195 192 190 190 194
306 156 81 90 222 139 149 209 146 216 327 339 219 218 191 174 274 290 253 284 303 291 296 358 321 297 329 299 242 232 235 251 251 247 247 243 226 214 207 212 213 208 203 201 199 194 197 201 199 204 203 194 197 199 206 205 208 204 205 208 211 209 206 205 216 212 211 205 203 201 202 202 205 203 208 200 203 189 195 201 201 202 197 194 193 195 194 191 188 189 193 192 195 182 189 194 195
221 109 199 208 139 99 93 48 25 108 41 257 160 307 293 300 316 260 300 308 275 292 306 315 284 286 298 253 247 245 240 243 246 238 234 238 226 227 219 216 216 210 205 205 203 199 201 196 199 207 210 200 201 204 206 205 207 205 210 209 209 210 207 207 211 213 210 209 208 207 205 206 203 203 203 201 202 201 200 202 201 201 196 193 192 191 189 194 192 193 192 192 193 183 189 197 189
98 150 232 185 141 118 129 202 350 67 190 266 89 240 302 17 283 322 359 325 285 251 258 258 277 282 270 251 231 223 226 227 239 248 253 250 237 232 234 232 222 215 208 205 207 201 202 201 199 205 206 206 206 204 208 207 207 212 213 213 213 212 211 210 210 212 205 204 208 209 208 204 206 200 196 201 200 201 204 201 202 205 203 196 198 196 192 190 188 195 196 195 194 178 188 194 194
144 196 199 112 222 225 304 92 242 143 268 272 296 276 255 200 245 1 245 152 74 186 234 259 273 268 250 257 238 260 256 268 256 245 244 245 228 225 226 231 229 225 217 211 204 199 203 208 210 208 212 210 205 204 208 214 213 217 217 218 216 217 215 210 212 211 205 206 207 206 205 207 201 195 196 196 202 205 201 202 202 206 203 205 196 192 192 190 187 193 193 195 186 181 187 192 193
44 61 86 128 102 169 129 200 172 124 240 43 287 28 259 193 212 187 203 223 220 247 284 247 236 239 253 269 258 223 246 240 236 233 237 241 237 227 223 223 223 218 213 209 203 201 209 207 212 222 227 217 207 207 203 212 210 215 223 223 227 226 220 213 211 210 211 212 210 206 206 204 202 193 199 196 199 200 199 200 202 201 203 203 197 194 187 190 190 198 190 189 183 183 192 190 185
125 128 209 193 26 226 114 42 127 173 170 183 249 310 266 257 209 171 209 226 237 229 238 238 247 257 257 258 258 262 242 238 245 236 234 239 240 238 234 232 233 229 220 209 203 205 207 205 216 212 214 216 216 209 202 212 200 212 215 217 217 219 225 219 219 216 218 216 212 208 208 204 187 200 192 197 200 200 199 203 200 202 200 198 198 196 192 185 191 194 190 187 176 188 192 191 173
179 172 194 177 131 142 150 256 30 97 105 228 148 260 268 254 193 192 190 224 224 237 228 238 248 257 256 264 266 243 263 270 241 235 235 246 253 255 255 246 235 227 229 215 206 202 206 209 211 208 211 220 216 210 205 205 203 208 214 215 216 218 218 222 220 221 225 221 214 210 205 192 197 199 189 198 200 198 198 198 201 203 202 203 205 200 191 186 190 190 187 183 180 185 196 187 177